Torna al catalogo

ZHIJIANG-1

AttivoScienzaSSO
NORAD 63982·PAYLOAD·🇨🇳 China
Questo nome del satellite non è ancora stato confermato da fonti ufficiali.

Lanciato May 14, 2025 da Jiuquan Satellite Launch Center

Loading…

Prossimi Passaggi (prossime 24 ore)

TLE

AggiornatoSource: Space-Track

Epoca: Sep 14, 2026, 22:26 UTC

1 63982U 25100A   26257.93501428  .00009044  00000-0  40270-3 0  9993
2 63982  97.3594 328.7105 0028885  54.4711 305.9212 15.21299493 74284

Traccia ZHIJIANG-1 in tempo reale con AllMySat

Download on the App Store